Year,Month,Day,Hour,Minute,Value (Times are PST for temperature in C)
2016,02,12,00,00,8.00
2016,02,12,00,01,8.00
2016,02,12,00,02,8.00
2016,02,12,00,03,8.00
2016,02,12,00,04,8.00
2016,02,12,00,05,8.00
2016,02,12,00,06,8.00
2016,02,12,00,07,8.00
2016,02,12,00,08,8.00
2016,02,12,00,09,8.00
2016,02,12,00,10,8.00
2016,02,12,00,11,8.00
2016,02,12,00,12,8.00
2016,02,12,00,13,8.00
2016,02,12,00,14,7.90
2016,02,12,00,15,7.90
2016,02,12,00,16,7.90
2016,02,12,00,17,7.90
2016,02,12,00,18,7.90
2016,02,12,00,19,7.90
2016,02,12,00,20,7.90
2016,02,12,00,21,7.90
2016,02,12,00,22,7.90
2016,02,12,00,23,7.90
2016,02,12,00,24,7.90
2016,02,12,00,25,7.90
2016,02,12,00,26,7.90
2016,02,12,00,27,7.90
2016,02,12,00,28,7.90
2016,02,12,00,29,7.90
2016,02,12,00,30,7.90
2016,02,12,00,31,7.90
2016,02,12,00,32,7.90
2016,02,12,00,33,7.90
2016,02,12,00,34,7.90
2016,02,12,00,35,7.90
2016,02,12,00,36,7.90
2016,02,12,00,37,8.00
2016,02,12,00,38,8.00
2016,02,12,00,39,8.00
2016,02,12,00,40,7.90
2016,02,12,00,41,8.00
2016,02,12,00,42,8.00
2016,02,12,00,43,8.00
2016,02,12,00,44,7.90
2016,02,12,00,45,8.00
2016,02,12,00,46,7.90
2016,02,12,00,47,7.90
2016,02,12,00,48,7.90
2016,02,12,00,49,7.90
2016,02,12,00,50,7.90
2016,02,12,00,51,7.90
2016,02,12,00,52,7.90
2016,02,12,00,53,7.90
2016,02,12,00,54,7.90
2016,02,12,00,55,7.90
2016,02,12,00,56,7.90
2016,02,12,00,57,7.90
2016,02,12,00,58,7.90
2016,02,12,00,59,7.90
2016,02,12,01,00,7.90
2016,02,12,01,01,7.90
2016,02,12,01,02,7.90
2016,02,12,01,03,7.90
2016,02,12,01,04,7.90
2016,02,12,01,05,7.90
2016,02,12,01,06,7.90
2016,02,12,01,07,7.90
2016,02,12,01,08,7.90
2016,02,12,01,09,7.90
2016,02,12,01,10,7.90
2016,02,12,01,11,7.90
2016,02,12,01,12,7.90
2016,02,12,01,13,7.90
2016,02,12,01,14,7.90
2016,02,12,01,15,7.90
2016,02,12,01,16,7.90
2016,02,12,01,17,7.90
2016,02,12,01,18,7.90
2016,02,12,01,19,7.90
2016,02,12,01,20,7.90
2016,02,12,01,21,7.90
2016,02,12,01,22,7.90
2016,02,12,01,23,7.90
2016,02,12,01,24,7.90
2016,02,12,01,25,7.90
2016,02,12,01,26,7.90
2016,02,12,01,27,7.90
2016,02,12,01,28,7.90
2016,02,12,01,29,7.90
2016,02,12,01,30,7.90
2016,02,12,01,31,7.90
2016,02,12,01,32,7.90
2016,02,12,01,33,7.90
2016,02,12,01,34,7.90
2016,02,12,01,35,7.90
2016,02,12,01,36,7.90
2016,02,12,01,37,7.90
2016,02,12,01,38,7.90
2016,02,12,01,39,7.90
2016,02,12,01,40,7.90
2016,02,12,01,41,7.90
2016,02,12,01,42,7.80
2016,02,12,01,43,7.90
2016,02,12,01,44,7.80
2016,02,12,01,45,7.80
2016,02,12,01,46,7.80
2016,02,12,01,47,7.80
2016,02,12,01,48,7.80
2016,02,12,01,49,7.80
2016,02,12,01,50,7.80
2016,02,12,01,51,7.80
2016,02,12,01,52,7.80
2016,02,12,01,53,7.80
2016,02,12,01,54,7.80
2016,02,12,01,55,7.90
2016,02,12,01,56,7.90
2016,02,12,01,57,7.90
2016,02,12,01,58,7.90
2016,02,12,01,59,7.90
2016,02,12,02,00,7.90
2016,02,12,02,01,7.90
2016,02,12,02,02,7.80
2016,02,12,02,03,7.90
2016,02,12,02,04,7.80
2016,02,12,02,05,7.80
2016,02,12,02,06,7.80
2016,02,12,02,07,7.80
2016,02,12,02,08,7.80
2016,02,12,02,09,7.80
2016,02,12,02,10,7.80
2016,02,12,02,11,7.80
2016,02,12,02,12,7.80
2016,02,12,02,13,7.80
2016,02,12,02,14,7.80
2016,02,12,02,15,7.80
2016,02,12,02,16,7.80
2016,02,12,02,17,7.80
2016,02,12,02,18,7.80
2016,02,12,02,19,7.80
2016,02,12,02,20,7.80
2016,02,12,02,21,7.80
2016,02,12,02,22,7.80
2016,02,12,02,23,7.80
2016,02,12,02,24,7.80
2016,02,12,02,25,7.80
2016,02,12,02,26,7.80
2016,02,12,02,27,7.80
2016,02,12,02,28,7.80
2016,02,12,02,29,7.80
2016,02,12,02,30,7.80
2016,02,12,02,31,7.80
2016,02,12,02,32,7.80
2016,02,12,02,33,7.80
2016,02,12,02,34,7.80
2016,02,12,02,35,7.80
2016,02,12,02,36,7.90
2016,02,12,02,37,7.90
2016,02,12,02,38,7.90
2016,02,12,02,39,7.90
2016,02,12,02,40,7.90
2016,02,12,02,41,7.90
2016,02,12,02,42,7.90
2016,02,12,02,43,7.90
2016,02,12,02,44,7.90
2016,02,12,02,45,7.90
2016,02,12,02,46,7.90
2016,02,12,02,47,7.90
2016,02,12,02,48,7.90
2016,02,12,02,49,7.90
2016,02,12,02,50,8.00
2016,02,12,02,51,8.00
2016,02,12,02,52,8.00
2016,02,12,02,53,8.00
2016,02,12,02,54,8.00
2016,02,12,02,55,8.00
2016,02,12,02,56,8.00
2016,02,12,02,57,8.00
2016,02,12,02,58,8.00
2016,02,12,02,59,8.00
2016,02,12,03,00,8.00
2016,02,12,03,01,8.10
2016,02,12,03,02,8.10
2016,02,12,03,06,8.10
2016,02,12,03,07,8.10
2016,02,12,03,08,8.10
2016,02,12,03,09,8.10
2016,02,12,03,10,8.10
2016,02,12,03,11,8.10
2016,02,12,03,12,8.10
2016,02,12,03,13,8.10
2016,02,12,03,14,8.10
2016,02,12,03,15,8.10
2016,02,12,03,16,8.10
2016,02,12,03,17,8.10
2016,02,12,03,18,8.10
2016,02,12,03,19,8.10
2016,02,12,03,20,8.10
2016,02,12,03,21,8.10
2016,02,12,03,22,8.20
2016,02,12,03,23,8.20
2016,02,12,03,24,8.20
2016,02,12,03,25,8.20
2016,02,12,03,26,8.20
2016,02,12,03,27,8.20
2016,02,12,03,28,8.20
2016,02,12,03,29,8.20
2016,02,12,03,30,8.20
2016,02,12,03,31,8.20
2016,02,12,03,32,8.20
2016,02,12,03,33,8.20
2016,02,12,03,34,8.20
2016,02,12,03,35,8.20
2016,02,12,03,36,8.20
2016,02,12,03,37,8.20
2016,02,12,03,38,8.20
2016,02,12,03,39,8.20
2016,02,12,03,40,8.20
2016,02,12,03,41,8.20
2016,02,12,03,42,8.20
2016,02,12,03,43,8.20
2016,02,12,03,44,8.20
2016,02,12,03,45,8.20
2016,02,12,03,46,8.20
2016,02,12,03,47,8.20
2016,02,12,03,48,8.20
2016,02,12,03,49,8.20
2016,02,12,03,50,8.20
2016,02,12,03,51,8.20
2016,02,12,03,52,8.20
2016,02,12,03,53,8.20
2016,02,12,03,54,8.20
2016,02,12,03,55,8.20
2016,02,12,03,56,8.20
2016,02,12,03,57,8.20
2016,02,12,03,58,8.20
2016,02,12,03,59,8.20
2016,02,12,04,00,8.20
2016,02,12,04,01,8.20
2016,02,12,04,02,8.20
2016,02,12,04,03,8.20
2016,02,12,04,04,8.20
2016,02,12,04,05,8.20
2016,02,12,04,06,8.20
2016,02,12,04,07,8.30
2016,02,12,04,08,8.30
2016,02,12,04,09,8.30
2016,02,12,04,10,8.40
2016,02,12,04,11,8.40
2016,02,12,04,12,8.40
2016,02,12,04,13,8.40
2016,02,12,04,14,8.40
2016,02,12,04,15,8.50
2016,02,12,04,16,8.50
2016,02,12,04,17,8.50
2016,02,12,04,18,8.60
2016,02,12,04,19,8.60
2016,02,12,04,20,8.60
2016,02,12,04,21,8.60
2016,02,12,04,22,8.60
2016,02,12,04,23,8.60
2016,02,12,04,24,8.70
2016,02,12,04,25,8.70
2016,02,12,04,26,8.70
2016,02,12,04,27,8.70
2016,02,12,04,28,8.70
2016,02,12,04,29,8.80
2016,02,12,04,30,8.80
2016,02,12,04,31,8.90
2016,02,12,04,32,9.00
2016,02,12,04,33,9.10
2016,02,12,04,34,9.30
2016,02,12,04,35,9.40
2016,02,12,04,36,9.50
2016,02,12,04,37,9.60
2016,02,12,04,38,9.60
2016,02,12,04,39,9.70
2016,02,12,04,40,9.70
2016,02,12,04,41,9.80
2016,02,12,04,42,9.80
2016,02,12,04,43,9.80
2016,02,12,04,44,9.80
2016,02,12,04,45,9.80
2016,02,12,04,46,9.80
2016,02,12,04,47,9.80
2016,02,12,04,48,9.90
2016,02,12,04,49,9.90
2016,02,12,04,50,9.90
2016,02,12,04,51,9.90
2016,02,12,04,52,9.90
2016,02,12,04,53,9.90
2016,02,12,04,54,9.90
2016,02,12,04,55,9.90
2016,02,12,04,56,10.00
2016,02,12,04,57,10.00
2016,02,12,04,58,10.00
2016,02,12,04,59,10.00
2016,02,12,05,00,10.00
2016,02,12,05,01,10.00
2016,02,12,05,02,10.00
2016,02,12,05,03,10.00
2016,02,12,05,04,10.10
2016,02,12,05,05,10.10
2016,02,12,05,06,10.00
2016,02,12,05,07,10.10
2016,02,12,05,08,10.10
2016,02,12,05,09,10.10
2016,02,12,05,10,10.10
2016,02,12,05,11,10.10
2016,02,12,05,12,10.10
2016,02,12,05,13,10.10
2016,02,12,05,14,10.10
2016,02,12,05,15,10.10
2016,02,12,05,16,10.10
2016,02,12,05,17,10.10
2016,02,12,05,18,10.20
2016,02,12,05,19,10.20
2016,02,12,05,20,10.20
2016,02,12,05,21,10.20
2016,02,12,05,22,10.20
2016,02,12,05,23,10.20
2016,02,12,05,24,10.20
2016,02,12,05,25,10.20
2016,02,12,05,26,10.20
2016,02,12,05,27,10.20
2016,02,12,05,28,10.20
2016,02,12,05,29,10.20
2016,02,12,05,30,10.20
2016,02,12,05,31,10.20
2016,02,12,05,32,10.20
2016,02,12,05,33,10.20
2016,02,12,05,34,10.20
2016,02,12,05,35,10.20
2016,02,12,05,36,10.20
2016,02,12,05,37,10.20
2016,02,12,05,38,10.20
2016,02,12,05,39,10.20
2016,02,12,05,40,10.20
2016,02,12,05,41,10.20
2016,02,12,05,42,10.20
2016,02,12,05,43,10.20
2016,02,12,05,44,10.20
2016,02,12,05,45,10.20
2016,02,12,05,46,10.20
2016,02,12,05,47,10.20
2016,02,12,05,48,10.20
2016,02,12,05,49,10.20
2016,02,12,05,50,10.20
2016,02,12,05,51,10.20
2016,02,12,05,52,10.20
2016,02,12,05,53,10.20
2016,02,12,05,54,10.20
2016,02,12,05,55,10.20
2016,02,12,05,56,10.20
2016,02,12,05,57,10.20
2016,02,12,05,58,10.20
2016,02,12,05,59,10.20
2016,02,12,06,00,10.20
2016,02,12,06,01,10.20
2016,02,12,06,02,10.20
2016,02,12,06,03,10.30
2016,02,12,06,04,10.30
2016,02,12,06,05,10.30
2016,02,12,06,06,10.30
2016,02,12,06,07,10.30
2016,02,12,06,08,10.30
2016,02,12,06,09,10.30
2016,02,12,06,10,10.30
2016,02,12,06,11,10.30
2016,02,12,06,12,10.30
2016,02,12,06,13,10.30
2016,02,12,06,14,10.30
2016,02,12,06,15,10.30
2016,02,12,06,16,10.30
2016,02,12,06,17,10.30
2016,02,12,06,18,10.30
2016,02,12,06,19,10.30
2016,02,12,06,20,10.30
2016,02,12,06,21,10.30
2016,02,12,06,22,10.30
2016,02,12,06,23,10.30
2016,02,12,06,24,10.30
2016,02,12,06,25,10.30
2016,02,12,06,26,10.30
2016,02,12,06,27,10.20
2016,02,12,06,28,10.20
2016,02,12,06,29,10.10
2016,02,12,06,30,10.10
2016,02,12,06,31,10.00
2016,02,12,06,32,9.90
2016,02,12,06,33,9.90
2016,02,12,06,34,9.90
2016,02,12,06,35,9.80
2016,02,12,06,36,9.80
2016,02,12,06,37,9.80
2016,02,12,06,38,9.80
2016,02,12,06,39,9.80
2016,02,12,06,40,9.80
2016,02,12,06,41,9.80
2016,02,12,06,42,9.80
2016,02,12,06,43,9.80
2016,02,12,06,44,9.80
2016,02,12,06,45,9.80
2016,02,12,06,46,9.80
2016,02,12,06,47,9.80
2016,02,12,06,48,9.80
2016,02,12,06,49,9.80
2016,02,12,06,50,9.80
2016,02,12,06,51,9.90
2016,02,12,06,52,9.90
2016,02,12,06,53,9.90
2016,02,12,06,54,9.90
2016,02,12,06,55,9.90
2016,02,12,06,56,9.90
2016,02,12,06,57,9.90
2016,02,12,06,58,9.90
2016,02,12,06,59,10.00
2016,02,12,07,00,10.00
2016,02,12,07,01,10.10
2016,02,12,07,02,10.10
2016,02,12,07,03,10.20
2016,02,12,07,04,10.20
2016,02,12,07,05,10.20
2016,02,12,07,06,10.30
2016,02,12,07,07,10.30
2016,02,12,07,08,10.40
2016,02,12,07,09,10.40
2016,02,12,07,10,10.40
2016,02,12,07,11,10.40
2016,02,12,07,12,10.50
2016,02,12,07,13,10.50
2016,02,12,07,14,10.50
2016,02,12,07,15,10.50
2016,02,12,07,16,10.50
2016,02,12,07,17,10.60
2016,02,12,07,18,10.60
2016,02,12,07,19,10.60
2016,02,12,07,20,10.60
2016,02,12,07,21,10.60
2016,02,12,07,22,10.60
2016,02,12,07,23,10.60
2016,02,12,07,24,10.60
2016,02,12,07,25,10.60
2016,02,12,07,26,10.60
2016,02,12,07,27,10.60
2016,02,12,07,28,10.70
2016,02,12,07,29,10.70
2016,02,12,07,30,10.70
2016,02,12,07,31,10.70
2016,02,12,07,32,10.70
2016,02,12,07,33,10.70
2016,02,12,07,34,10.70
2016,02,12,07,35,10.70
2016,02,12,07,36,10.70
2016,02,12,07,37,10.70
2016,02,12,07,38,10.70
2016,02,12,07,39,10.70
2016,02,12,07,40,10.70
2016,02,12,07,41,10.80
2016,02,12,07,42,10.80
2016,02,12,07,43,10.80
2016,02,12,07,44,10.80
2016,02,12,07,45,10.80
2016,02,12,07,46,10.80
2016,02,12,07,47,10.80
2016,02,12,07,48,10.80
2016,02,12,07,49,10.80
2016,02,12,07,50,10.90
2016,02,12,07,51,10.90
2016,02,12,07,52,10.90
2016,02,12,07,53,10.90
2016,02,12,07,54,10.90
2016,02,12,07,55,10.90
2016,02,12,07,56,10.90
2016,02,12,07,57,10.90
2016,02,12,07,58,10.90
2016,02,12,07,59,10.90
2016,02,12,08,00,10.80
2016,02,12,08,01,10.80
2016,02,12,08,02,10.80
2016,02,12,08,03,10.80
2016,02,12,08,04,10.80
2016,02,12,08,05,10.80
2016,02,12,08,06,10.80
2016,02,12,08,07,10.80
2016,02,12,08,08,10.80
2016,02,12,08,09,10.80
2016,02,12,08,10,10.80
2016,02,12,08,11,10.80
2016,02,12,08,12,10.80
2016,02,12,08,13,10.80
2016,02,12,08,14,10.70
2016,02,12,08,15,10.70
2016,02,12,08,16,10.70
2016,02,12,08,17,10.70
2016,02,12,08,18,10.70
2016,02,12,08,19,10.60
2016,02,12,08,20,10.60
2016,02,12,08,21,10.60
2016,02,12,08,22,10.60
2016,02,12,08,23,10.50
2016,02,12,08,24,10.50
2016,02,12,08,25,10.50
2016,02,12,08,26,10.50
2016,02,12,08,27,10.40
2016,02,12,08,28,10.40
2016,02,12,08,29,10.40
2016,02,12,08,30,10.40
2016,02,12,08,31,10.40
2016,02,12,08,32,10.40
2016,02,12,08,33,10.40
2016,02,12,08,34,10.40
2016,02,12,08,35,10.30
2016,02,12,08,36,10.30
2016,02,12,08,37,10.30
2016,02,12,08,38,10.30
2016,02,12,08,39,10.30
2016,02,12,08,40,10.20
2016,02,12,08,41,10.20
2016,02,12,08,42,10.20
2016,02,12,08,43,10.20
2016,02,12,08,44,10.20
2016,02,12,08,45,10.10
2016,02,12,08,46,10.10
2016,02,12,08,47,10.10
2016,02,12,08,48,10.10
2016,02,12,08,49,10.10
2016,02,12,08,50,10.10
2016,02,12,08,51,10.10
2016,02,12,08,52,10.10
2016,02,12,08,53,10.10
2016,02,12,08,54,10.10
2016,02,12,08,55,10.10
2016,02,12,08,56,10.10
2016,02,12,08,57,10.10
2016,02,12,08,58,10.10
2016,02,12,08,59,10.10
2016,02,12,09,00,10.10
2016,02,12,09,01,10.10
2016,02,12,09,02,10.10
2016,02,12,09,03,10.10
2016,02,12,09,04,10.10
2016,02,12,09,05,10.10
2016,02,12,09,06,10.20
2016,02,12,09,07,10.20
2016,02,12,09,08,10.20
2016,02,12,09,09,10.20
2016,02,12,09,10,10.30
2016,02,12,09,11,10.30
2016,02,12,09,12,10.30
2016,02,12,09,13,10.40
2016,02,12,09,14,10.40
2016,02,12,09,15,10.40
2016,02,12,09,16,10.40
2016,02,12,09,17,10.40
2016,02,12,09,18,10.40
2016,02,12,09,19,10.40
2016,02,12,09,20,10.40
2016,02,12,09,21,10.40
2016,02,12,09,22,10.40
2016,02,12,09,23,10.40
2016,02,12,09,24,10.40
2016,02,12,09,25,10.40
2016,02,12,09,26,10.30
2016,02,12,09,27,10.30
2016,02,12,09,28,10.30
2016,02,12,09,29,10.30
2016,02,12,09,30,10.30
2016,02,12,09,31,10.30
2016,02,12,09,32,10.30
2016,02,12,09,33,10.40
2016,02,12,09,34,10.40
2016,02,12,09,35,10.40
2016,02,12,09,36,10.40
2016,02,12,09,37,10.30
2016,02,12,09,38,10.30
2016,02,12,09,39,10.40
2016,02,12,09,40,10.40
2016,02,12,09,41,10.40
2016,02,12,09,42,10.40
2016,02,12,09,43,10.40
2016,02,12,09,44,10.50
2016,02,12,09,45,10.50
2016,02,12,09,46,10.50
2016,02,12,09,47,10.50
2016,02,12,09,48,10.50
2016,02,12,09,49,10.50
2016,02,12,09,50,10.50
2016,02,12,09,51,10.50
2016,02,12,09,52,10.50
2016,02,12,09,53,10.50
2016,02,12,09,54,10.50
2016,02,12,09,55,10.50
2016,02,12,09,56,10.40
2016,02,12,09,57,10.40
2016,02,12,09,58,10.40
2016,02,12,09,59,10.40
2016,02,12,10,00,10.40
2016,02,12,10,01,10.40
2016,02,12,10,02,10.40
2016,02,12,10,03,10.40
2016,02,12,10,04,10.40
2016,02,12,10,05,10.40
2016,02,12,10,06,10.40
2016,02,12,10,07,10.40
2016,02,12,10,08,10.40
2016,02,12,10,09,10.40
2016,02,12,10,10,10.50
2016,02,12,10,11,10.50
2016,02,12,10,12,10.60
2016,02,12,10,13,10.70
2016,02,12,10,14,10.70
2016,02,12,10,15,10.80
2016,02,12,10,16,10.80
2016,02,12,10,17,10.90
2016,02,12,10,18,10.90
2016,02,12,10,19,10.90
2016,02,12,10,20,11.00
2016,02,12,10,21,11.00
2016,02,12,10,22,11.10
2016,02,12,10,23,11.10
2016,02,12,10,24,11.20
2016,02,12,10,25,11.20
2016,02,12,10,26,11.30
2016,02,12,10,27,11.40
2016,02,12,10,28,11.50
2016,02,12,10,29,11.60
2016,02,12,10,30,11.60
2016,02,12,10,31,11.70
2016,02,12,10,32,11.70
2016,02,12,10,33,11.70
2016,02,12,10,34,11.70
2016,02,12,10,35,11.60
2016,02,12,10,36,11.60
2016,02,12,10,37,11.60
2016,02,12,10,38,11.60
2016,02,12,10,39,11.60
2016,02,12,10,40,11.60
2016,02,12,10,41,11.50
2016,02,12,10,42,11.50
2016,02,12,10,43,11.50
2016,02,12,10,44,11.40
2016,02,12,10,45,11.40
2016,02,12,10,46,11.30
2016,02,12,10,47,11.30
2016,02,12,10,48,11.20
2016,02,12,10,49,11.20
2016,02,12,10,50,11.10
2016,02,12,10,51,11.10
2016,02,12,10,52,11.00
2016,02,12,10,53,10.90
2016,02,12,10,54,10.90
2016,02,12,10,55,10.90
2016,02,12,10,56,11.00
2016,02,12,10,57,11.00
2016,02,12,10,58,11.10
2016,02,12,10,59,11.10
2016,02,12,11,00,11.10
2016,02,12,11,01,11.20
2016,02,12,11,02,11.30
2016,02,12,11,03,11.30
2016,02,12,11,04,11.40
2016,02,12,11,05,11.40
2016,02,12,11,06,11.50
2016,02,12,11,07,11.50
2016,02,12,11,08,11.60
2016,02,12,11,09,11.60
2016,02,12,11,10,11.60
2016,02,12,11,11,11.70
2016,02,12,11,12,11.70
2016,02,12,11,13,11.80
2016,02,12,11,14,11.80
2016,02,12,11,15,11.90
2016,02,12,11,16,11.90
2016,02,12,11,17,12.00
2016,02,12,11,18,12.00
2016,02,12,11,19,12.10
2016,02,12,11,20,12.10
2016,02,12,11,21,12.10
2016,02,12,11,22,12.10
2016,02,12,11,23,12.20
2016,02,12,11,24,12.20
2016,02,12,11,25,12.20
2016,02,12,11,26,12.30
2016,02,12,11,27,12.30
2016,02,12,11,28,12.30
2016,02,12,11,29,12.30
2016,02,12,11,30,12.20
2016,02,12,11,31,12.20
2016,02,12,11,32,12.20
2016,02,12,11,33,12.20
2016,02,12,11,34,12.20
2016,02,12,11,35,12.30
2016,02,12,11,36,12.30
2016,02,12,11,37,12.30
2016,02,12,11,38,12.40
2016,02,12,11,39,12.40
2016,02,12,11,40,12.40
2016,02,12,11,41,12.40
2016,02,12,11,42,12.40
2016,02,12,11,43,12.50
2016,02,12,11,44,12.50
2016,02,12,11,45,12.60
2016,02,12,11,46,12.60
2016,02,12,11,47,12.60
2016,02,12,11,48,12.60
2016,02,12,11,49,12.70
2016,02,12,11,50,12.70
2016,02,12,11,51,12.70
2016,02,12,11,52,12.70
2016,02,12,11,53,12.80
2016,02,12,11,54,12.80
2016,02,12,11,55,12.80
2016,02,12,11,56,12.90
2016,02,12,11,57,12.90
2016,02,12,11,58,12.90
2016,02,12,11,59,12.90
2016,02,12,12,00,12.90
2016,02,12,12,01,13.00
2016,02,12,12,02,13.00
2016,02,12,12,03,13.00
2016,02,12,12,04,13.00
2016,02,12,12,05,13.10
2016,02,12,12,06,13.10
2016,02,12,12,07,13.10
2016,02,12,12,08,13.10
2016,02,12,12,09,13.10
2016,02,12,12,10,13.10
2016,02,12,12,11,13.00
2016,02,12,12,12,13.00
2016,02,12,12,13,13.00
2016,02,12,12,14,13.10
2016,02,12,12,15,13.10
2016,02,12,12,16,13.10
2016,02,12,12,17,13.10
2016,02,12,12,18,13.10
2016,02,12,12,19,13.10
2016,02,12,12,20,13.10
2016,02,12,12,21,13.10
2016,02,12,12,22,13.20
2016,02,12,12,23,13.20
2016,02,12,12,24,13.20
2016,02,12,12,25,13.20
2016,02,12,12,26,13.20
2016,02,12,12,27,13.20
2016,02,12,12,28,13.20
2016,02,12,12,29,13.20
2016,02,12,12,30,13.20
2016,02,12,12,31,13.20
2016,02,12,12,32,13.20
2016,02,12,12,33,13.20
2016,02,12,12,34,13.20
2016,02,12,12,35,13.20
2016,02,12,12,36,13.20
2016,02,12,12,37,13.20
2016,02,12,12,38,13.20
2016,02,12,12,39,13.20
2016,02,12,12,40,13.20
2016,02,12,12,41,13.20
2016,02,12,12,42,13.10
2016,02,12,12,43,13.10
2016,02,12,12,44,13.10
2016,02,12,12,45,13.10
2016,02,12,12,46,13.00
2016,02,12,12,47,13.00
2016,02,12,12,48,12.90
2016,02,12,12,49,12.90
2016,02,12,12,50,12.90
2016,02,12,12,51,12.80
2016,02,12,12,52,12.80
2016,02,12,12,53,12.80
2016,02,12,12,54,12.70
2016,02,12,12,55,12.70
2016,02,12,12,56,12.70
2016,02,12,12,57,12.70
2016,02,12,12,58,12.70
2016,02,12,12,59,12.70
2016,02,12,13,00,12.70
2016,02,12,13,01,12.70
2016,02,12,13,02,12.60
2016,02,12,13,03,12.60
2016,02,12,13,04,12.60
2016,02,12,13,05,12.60
2016,02,12,13,06,12.60
2016,02,12,13,07,12.60
2016,02,12,13,08,12.60
2016,02,12,13,09,12.60
2016,02,12,13,10,12.60
2016,02,12,13,11,12.60
2016,02,12,13,12,12.60
2016,02,12,13,13,12.60
2016,02,12,13,14,12.60
2016,02,12,13,15,12.60
2016,02,12,13,16,12.60
2016,02,12,13,17,12.60
2016,02,12,13,18,12.60
2016,02,12,13,19,12.50
2016,02,12,13,20,12.50
2016,02,12,13,21,12.50
2016,02,12,13,22,12.40
2016,02,12,13,23,12.40
2016,02,12,13,24,12.50
2016,02,12,13,25,12.50
2016,02,12,13,26,12.50
2016,02,12,13,27,12.50
2016,02,12,13,28,12.50
2016,02,12,13,29,12.50
2016,02,12,13,30,12.60
2016,02,12,13,31,12.60
2016,02,12,13,32,12.70
2016,02,12,13,33,12.70
2016,02,12,13,34,12.70
2016,02,12,13,35,12.80
2016,02,12,13,36,12.80
2016,02,12,13,37,12.80
2016,02,12,13,38,12.90
2016,02,12,13,39,13.00
2016,02,12,13,40,13.00
2016,02,12,13,41,13.00
2016,02,12,13,42,13.10
2016,02,12,13,43,13.10
2016,02,12,13,44,13.20
2016,02,12,13,45,13.20
2016,02,12,13,46,13.30
2016,02,12,13,47,13.30
2016,02,12,13,48,13.40
2016,02,12,13,49,13.40
2016,02,12,13,50,13.50
2016,02,12,13,51,13.50
2016,02,12,13,52,13.60
2016,02,12,13,53,13.60
2016,02,12,13,54,13.70
2016,02,12,13,55,13.80
2016,02,12,13,56,13.80
2016,02,12,13,57,13.80
2016,02,12,13,58,13.80
2016,02,12,13,59,13.80
2016,02,12,14,00,13.80
2016,02,12,14,01,13.80
2016,02,12,14,02,13.80
2016,02,12,14,03,13.80
2016,02,12,14,04,13.80
2016,02,12,14,05,13.80
2016,02,12,14,06,13.80
2016,02,12,14,07,13.80
2016,02,12,14,08,13.80
2016,02,12,14,09,13.90
2016,02,12,14,10,13.90
2016,02,12,14,11,14.00
2016,02,12,14,12,14.00
2016,02,12,14,13,14.10
2016,02,12,14,14,14.10
2016,02,12,14,15,14.20
2016,02,12,14,16,14.20
2016,02,12,14,17,14.30
2016,02,12,14,18,14.30
2016,02,12,14,19,14.40
2016,02,12,14,20,14.40
2016,02,12,14,21,14.50
2016,02,12,14,22,14.50
2016,02,12,14,23,14.50
2016,02,12,14,24,14.50
2016,02,12,14,25,14.40
2016,02,12,14,26,14.30
2016,02,12,14,27,14.20
2016,02,12,14,28,14.20
2016,02,12,14,29,14.10
2016,02,12,14,30,14.10
2016,02,12,14,31,14.10
2016,02,12,14,32,14.10
2016,02,12,14,33,14.10
2016,02,12,14,34,14.10
2016,02,12,14,35,14.10
2016,02,12,14,36,14.10
2016,02,12,14,37,14.10
2016,02,12,14,38,14.10
2016,02,12,14,39,14.10
2016,02,12,14,40,14.10
2016,02,12,14,41,14.10
2016,02,12,14,42,14.10
2016,02,12,14,43,14.10
2016,02,12,14,44,14.10
2016,02,12,14,45,14.20
2016,02,12,14,46,14.20
2016,02,12,14,47,14.20
2016,02,12,14,48,14.20
2016,02,12,14,49,14.10
2016,02,12,14,50,14.10
2016,02,12,14,51,14.10
2016,02,12,14,52,14.10
2016,02,12,14,53,14.10
2016,02,12,14,54,14.10
2016,02,12,14,55,14.10
2016,02,12,14,56,14.10
2016,02,12,14,57,14.10
2016,02,12,14,58,14.00
2016,02,12,14,59,14.00
2016,02,12,15,00,13.90
2016,02,12,15,01,13.90
2016,02,12,15,02,13.90
2016,02,12,15,03,13.90
2016,02,12,15,04,13.90
2016,02,12,15,05,13.90
2016,02,12,15,06,13.90
2016,02,12,15,07,13.90
2016,02,12,15,08,13.90
2016,02,12,15,09,13.90
2016,02,12,15,10,13.90
2016,02,12,15,11,13.90
2016,02,12,15,12,13.90
2016,02,12,15,13,13.90
2016,02,12,15,14,13.90
2016,02,12,15,15,13.90
2016,02,12,15,16,13.90
2016,02,12,15,17,13.90
2016,02,12,15,18,13.90
2016,02,12,15,19,13.90
2016,02,12,15,20,13.90
2016,02,12,15,21,13.80
2016,02,12,15,22,13.80
2016,02,12,15,23,13.70
2016,02,12,15,24,13.60
2016,02,12,15,25,13.50
2016,02,12,15,26,13.50
2016,02,12,15,27,13.40
2016,02,12,15,28,13.40
2016,02,12,15,29,13.30
2016,02,12,15,30,13.30
2016,02,12,15,31,13.30
2016,02,12,15,32,13.20
2016,02,12,15,33,13.20
2016,02,12,15,34,13.20
2016,02,12,15,35,13.20
2016,02,12,15,36,13.20
2016,02,12,15,37,13.20
2016,02,12,15,38,13.20
2016,02,12,15,39,13.20
2016,02,12,15,40,13.20
2016,02,12,15,41,13.20
2016,02,12,15,42,13.10
2016,02,12,15,43,13.10
2016,02,12,15,44,13.10
2016,02,12,15,45,13.00
2016,02,12,15,46,13.00
2016,02,12,15,47,12.90
2016,02,12,15,48,12.90
2016,02,12,15,49,12.80
2016,02,12,15,50,12.70
2016,02,12,15,51,12.70
2016,02,12,15,52,12.70
2016,02,12,15,53,12.60
2016,02,12,15,54,12.60
2016,02,12,15,55,12.60
2016,02,12,15,56,12.60
2016,02,12,15,57,12.60
2016,02,12,15,58,12.60
2016,02,12,15,59,12.60
2016,02,12,16,00,12.60
2016,02,12,16,01,12.60
2016,02,12,16,02,12.50
2016,02,12,16,03,12.50
2016,02,12,16,04,12.40
2016,02,12,16,05,12.30
2016,02,12,16,06,12.30
2016,02,12,16,07,12.30
2016,02,12,16,08,12.30
2016,02,12,16,09,12.20
2016,02,12,16,10,12.20
2016,02,12,16,11,12.20
2016,02,12,16,12,12.20
2016,02,12,16,13,12.20
2016,02,12,16,14,12.20
2016,02,12,16,15,12.30
2016,02,12,16,16,12.30
2016,02,12,16,17,12.30
2016,02,12,16,18,12.40
2016,02,12,16,19,12.40
2016,02,12,16,20,12.40
2016,02,12,16,21,12.40
2016,02,12,16,22,12.40
2016,02,12,16,23,12.40
2016,02,12,16,24,12.40
2016,02,12,16,25,12.40
2016,02,12,16,26,12.30
2016,02,12,16,27,12.30
2016,02,12,16,28,12.30
2016,02,12,16,29,12.30
2016,02,12,16,30,12.30
2016,02,12,16,31,12.30
2016,02,12,16,32,12.30
2016,02,12,16,33,12.30
2016,02,12,16,34,12.30
2016,02,12,16,35,12.30
2016,02,12,16,36,12.30
2016,02,12,16,37,12.30
2016,02,12,16,38,12.30
2016,02,12,16,39,12.30
2016,02,12,16,40,12.30
2016,02,12,16,41,12.30
2016,02,12,16,42,12.30
2016,02,12,16,43,12.30
2016,02,12,16,44,12.30
2016,02,12,16,45,12.30
2016,02,12,16,46,12.20
2016,02,12,16,47,12.20
2016,02,12,16,48,12.20
2016,02,12,16,49,12.20
2016,02,12,16,50,12.10
2016,02,12,16,51,12.10
2016,02,12,16,52,12.00
2016,02,12,16,53,12.00
2016,02,12,16,54,11.90
2016,02,12,16,55,11.90
2016,02,12,16,56,11.90
2016,02,12,16,57,11.90
2016,02,12,16,58,11.90
2016,02,12,16,59,11.90
2016,02,12,17,00,11.90
2016,02,12,17,01,11.80
2016,02,12,17,02,11.80
2016,02,12,17,03,11.70
2016,02,12,17,04,11.70
2016,02,12,17,05,11.70
2016,02,12,17,06,11.60
2016,02,12,17,07,11.60
2016,02,12,17,08,11.60
2016,02,12,17,09,11.50
2016,02,12,17,10,11.40
2016,02,12,17,11,11.40
2016,02,12,17,12,11.40
2016,02,12,17,13,11.40
2016,02,12,17,14,11.30
2016,02,12,17,15,11.30
2016,02,12,17,16,11.30
2016,02,12,17,17,11.30
2016,02,12,17,18,11.30
2016,02,12,17,19,11.30
2016,02,12,17,20,11.20
2016,02,12,17,21,11.20
2016,02,12,17,22,11.20
2016,02,12,17,23,11.10
2016,02,12,17,24,11.10
2016,02,12,17,25,11.10
2016,02,12,17,26,11.10
2016,02,12,17,27,11.00
2016,02,12,17,28,10.90
2016,02,12,17,29,10.90
2016,02,12,17,30,10.90
2016,02,12,17,31,10.80
2016,02,12,17,32,10.80
2016,02,12,17,33,10.70
2016,02,12,17,34,10.60
2016,02,12,17,35,10.60
2016,02,12,17,36,10.50